• En España
  • Lista de países
  • Para 7 días
  • Temperatura del agua
  • Mapa Satelital
  • El tiempo en el mapa
  • Informadores
  • user-avatar
    Iniciar sesión

    Tiempo cada hora Malanville

    Hoy, 18 Octubre, Jueves

    Tiempo Temperatura Precipitaciones Viento Presión Humedad
    00:00 +31°C° 0 mm 3 mps 743 mmHg 46%
    01:00 +30°C° 0 mm 3 mps 743 mmHg 48%
    02:00 +30°C° 0 mm 3 mps 742 mmHg 50%
    03:00 +29°C° 0 mm 3 mps 742 mmHg 52%
    04:00 +29°C° 0 mm 2 mps 742 mmHg 55%
    05:00 +28°C° 0 mm 2 mps 742 mmHg 58%
    06:00 +28°C° 0 mm 2 mps 742 mmHg 59%
    07:00 +31°C° 0 mm 2 mps 743 mmHg 53%
    08:00 +34°C° 0 mm 2 mps 743 mmHg 46%
    09:00 +36°C° 0 mm 2 mps 743 mmHg 39%
    10:00 +38°C° 0 mm 2 mps 743 mmHg 33%
    11:00 +40°C° 0 mm 1 mps 742 mmHg 27%
    12:00 +42°C° 0 mm 1 mps 741 mmHg 21%
    13:00 +42°C° 0 mm 2 mps 741 mmHg 20%
    14:00 +43°C° 0 mm 3 mps 740 mmHg 18%
    15:00 +44°C° 0 mm 3 mps 739 mmHg 17%
    16:00 +42°C° 0 mm 3 mps 739 mmHg 20%
    17:00 +38°C° 0 mm 2 mps 739 mmHg 23%
    18:00 +36°C° 0 mm 2 mps 740 mmHg 26%
    19:00 +36°C° 0 mm 2 mps 740 mmHg 27%
    20:00 +35°C° 0 mm 2 mps 741 mmHg 29%
    21:00 +34°C° 0 mm 2 mps 741 mmHg 31%
    22:00 +34°C° 0 mm 2 mps 741 mmHg 34%
    23:00 +33°C° 0 mm 3 mps 741 mmHg 37%

    Mañana, 19 Octubre, Viernes

    Tiempo Temperatura Precipitaciones Viento Presión Humedad
    00:00 +31°C° 0 mm 3 mps 741 mmHg 39%
    01:00 +31°C° 0 mm 3 mps 741 mmHg 44%
    02:00 +30°C° 0 mm 3 mps 741 mmHg 48%
    03:00 +29°C° 0 mm 3 mps 740 mmHg 52%
    04:00 +29°C° 0 mm 3 mps 741 mmHg 56%
    05:00 +29°C° 0 mm 3 mps 741 mmHg 60%
    06:00 +28°C° 0 mm 3 mps 741 mmHg 65%
    07:00 +31°C° 0 mm 3 mps 742 mmHg 58%
    08:00 +34°C° 0 mm 3 mps 743 mmHg 52%
    09:00 +36°C° 0 mm 3 mps 743 mmHg 45%
    10:00 +38°C° 0 mm 2 mps 743 mmHg 39%
    11:00 +40°C° 0 mm 2 mps 742 mmHg 32%
    12:00 +42°C° 0 mm 1 mps 742 mmHg 26%
    13:00 +42°C° 0 mm 1 mps 741 mmHg 23%
    14:00 +43°C° 0 mm 2 mps 740 mmHg 21%
    15:00 +44°C° 0 mm 3 mps 740 mmHg 18%
    16:00 +42°C° 0 mm 3 mps 740 mmHg 21%
    17:00 +39°C° 0 mm 3 mps 740 mmHg 24%
    18:00 +37°C° 0 mm 3 mps 740 mmHg 26%
    19:00 +36°C° 0 mm 2 mps 741 mmHg 29%
    20:00 +36°C° 0 mm 2 mps 741 mmHg 31%
    21:00 +35°C° 0 mm 2 mps 742 mmHg 33%
    22:00 +34°C° 0 mm 2 mps 741 mmHg 36%
    23:00 +32°C° 0 mm 2 mps 741 mmHg 38%

    Pasado mañana, 20 Octubre, Sábado

    Tiempo Temperatura Precipitaciones Viento Presión Humedad
    00:00 +31°C° 0 mm 2 mps 741 mmHg 40%
    01:00 +31°C° 0 mm 2 mps 741 mmHg 44%
    02:00 +30°C° 0 mm 2 mps 741 mmHg 48%
    03:00 +29°C° 0 mm 2 mps 740 mmHg 51%
    04:00 +29°C° 0 mm 2 mps 741 mmHg 55%
    05:00 +29°C° 0 mm 1 mps 741 mmHg 59%
    06:00 +28°C° 0 mm 1 mps 742 mmHg 63%
    07:00 +31°C° 0 mm 1 mps 743 mmHg 56%
    08:00 +34°C° 0 mm 2 mps 743 mmHg 49%
    09:00 +37°C° 0 mm 2 mps 744 mmHg 42%
    10:00 +39°C° 0 mm 2 mps 743 mmHg 34%
    11:00 +42°C° 0 mm 3 mps 743 mmHg 26%
    12:00 +44°C° 0 mm 3 mps 742 mmHg 18%
    13:00 +44°C° 0 mm 4 mps 741 mmHg 17%
    14:00 +45°C° 0 mm 5 mps 740 mmHg 16%
    15:00 +45°C° 0 mm 5 mps 740 mmHg 15%
    16:00 +42°C° 0 mm 4 mps 740 mmHg 15%
    17:00 +39°C° 0 mm 3 mps 740 mmHg 16%
    18:00 +37°C° 0 mm 2 mps 740 mmHg 17%
    19:00 +36°C° 0 mm 2 mps 741 mmHg 17%
    20:00 +34°C° 0 mm 2 mps 741 mmHg 17%
    21:00 +32°C° 0 mm 2 mps 742 mmHg 18%
    22:00 +31°C° 0 mm 2 mps 742 mmHg 22%
    23:00 +30°C° 0 mm 2 mps 742 mmHg 26%

    21 Octubre, Domingo

    Tiempo Temperatura Precipitaciones Viento Presión Humedad
    00:00 +30°C° 0 mm 2 mps 742 mmHg 30%
    01:00 +29°C° 0 mm 1 mps 741 mmHg 34%
    02:00 +28°C° 0 mm 1 mps 741 mmHg 39%
    03:00 +28°C° 0 mm 1 mps 741 mmHg 44%
    04:00 +27°C° 0 mm 1 mps 741 mmHg 47%
    05:00 +27°C° 0 mm 1 mps 741 mmHg 49%
    06:00 +27°C° 0 mm 1 mps 742 mmHg 52%
    07:00 +30°C° 0 mm 1 mps 742 mmHg 47%
    08:00 +32°C° 0 mm 1 mps 743 mmHg 41%
    09:00 +36°C° 0 mm 2 mps 743 mmHg 35%
    10:00 +38°C° 0 mm 2 mps 742 mmHg 29%
    11:00 +40°C° 0 mm 3 mps 742 mmHg 22%
    12:00 +44°C° 0 mm 4 mps 741 mmHg 15%
    13:00 +44°C° 0 mm 4 mps 740 mmHg 14%
    14:00 +44°C° 0 mm 4 mps 740 mmHg 13%
    15:00 +45°C° 0 mm 5 mps 739 mmHg 12%
    16:00 +42°C° 0 mm 4 mps 739 mmHg 13%
    17:00 +38°C° 0 mm 3 mps 739 mmHg 14%
    18:00 +36°C° 0 mm 2 mps 739 mmHg 16%
    19:00 +35°C° 0 mm 2 mps 740 mmHg 18%
    20:00 +34°C° 0 mm 2 mps 741 mmHg 20%
    21:00 +32°C° 0 mm 2 mps 741 mmHg 23%
    22:00 +31°C° 0 mm 2 mps 741 mmHg 27%
    23:00 +30°C° 0 mm 2 mps 741 mmHg 31%

    22 Octubre, Lunes

    Tiempo Temperatura Precipitaciones Viento Presión Humedad
    00:00 +30°C° 0 mm 2 mps 741 mmHg 35%
    01:00 +29°C° 0 mm 2 mps 741 mmHg 42%
    02:00 +28°C° 0 mm 2 mps 741 mmHg 50%
    03:00 +28°C° 0 mm 2 mps 740 mmHg 57%
    04:00 +27°C° 0 mm 2 mps 741 mmHg 64%
    05:00 +27°C° 0 mm 2 mps 741 mmHg 70%
    06:00 +27°C° 0 mm 2 mps 742 mmHg 76%
    07:00 +29°C° 0 mm 2 mps 742 mmHg 68%
    08:00 +32°C° 0 mm 2 mps 743 mmHg 59%
    09:00 +35°C° 0 mm 2 mps 743 mmHg 50%
    10:00 +38°C° 0 mm 2 mps 742 mmHg 42%
    11:00 +40°C° 0 mm 1 mps 742 mmHg 33%
    12:00 +40°C° 0 mm 0 mps 741 mmHg 24%
    13:00 +43°C° 0 mm 1 mps 740 mmHg 21%
    14:00 +43°C° 0 mm 2 mps 740 mmHg 18%
    15:00 +44°C° 0 mm 3 mps 739 mmHg 15%
    16:00 +42°C° 0 mm 3 mps 739 mmHg 18%
    17:00 +38°C° 0 mm 2 mps 739 mmHg 21%
    18:00 +36°C° 0 mm 2 mps 740 mmHg 24%
    19:00 +35°C° 0 mm 2 mps 740 mmHg 26%
    20:00 +33°C° 0 mm 1 mps 741 mmHg 27%
    21:00 +33°C° 0 mm 1 mps 742 mmHg 29%
    22:00 +32°C° 0 mm 2 mps 741 mmHg 30%
    23:00 +32°C° 0 mm 2 mps 741 mmHg 31%

    23 Octubre, Martes

    Tiempo Temperatura Precipitaciones Viento Presión Humedad
    00:00 +31°C° 0 mm 2 mps 741 mmHg 33%
    01:00 +30°C° 0 mm 2 mps 741 mmHg 35%
    02:00 +30°C° 0 mm 2 mps 741 mmHg 37%
    03:00 +29°C° 0 mm 2 mps 740 mmHg 40%
    04:00 +29°C° 0 mm 2 mps 741 mmHg 43%
    05:00 +28°C° 0 mm 2 mps 741 mmHg 46%
    06:00 +28°C° 0 mm 2 mps 742 mmHg 50%
    07:00 +31°C° 0 mm 2 mps 742 mmHg 45%
    08:00 +34°C° 0 mm 2 mps 743 mmHg 41%
    09:00 +37°C° 0 mm 3 mps 743 mmHg 36%
    10:00 +39°C° 0 mm 2 mps 742 mmHg 30%
    11:00 +42°C° 0 mm 1 mps 742 mmHg 24%
    12:00 +44°C° 0 mm 1 mps 741 mmHg 19%
    13:00 +44°C° 0 mm 1 mps 740 mmHg 16%
    14:00 +45°C° 0 mm 2 mps 740 mmHg 14%
    15:00 +45°C° 0 mm 3 mps 739 mmHg 12%
    16:00 +42°C° 0 mm 3 mps 739 mmHg 15%
    17:00 +39°C° 0 mm 2 mps 740 mmHg 17%
    18:00 +37°C° 0 mm 2 mps 740 mmHg 20%
    19:00 +36°C° 0 mm 2 mps 740 mmHg 21%
    20:00 +35°C° 0 mm 2 mps 741 mmHg 23%
    21:00 +35°C° 0 mm 2 mps 741 mmHg 25%
    22:00 +34°C° 0 mm 2 mps 741 mmHg 26%
    23:00 +32°C° 0 mm 2 mps 741 mmHg 27%
    Mostrar más